星链-6352 (STARLINK-6352 )

导读

STARLINK-6352是美国太空探索技术公司(SpaceX)星链(Starlink)星座中的卫星,于2023年5月31日发射,属于星链互联网卫星组网的一部分。星链计划旨在构建全球卫星互联网,该卫星升空后,进一步扩充了星链星座规模,提升星座全球网络覆盖与通信服务能力。

基本信息
目录编号:
56782
目录名称:
STARLINK-6352
国际标识:
2023-078R
轨道中心:
EARTH
卫星名称:
星链-6352
卫星全名:
星链-6352 (STARLINK-6352 )
卫星状态:
在轨 (已飞行1200 天)
发射日期:
2023-05-31 UTC
国别 :
美国 (US)
星等 :
--
该卫星已列入 空间交会检测服务 Space Conjunction Data Service (SCDS) ,当前飞行风险评估等级: 无高风险
轨道信息
数据来源 国际轨道数据
星历时间: 2026-09-12T16:00:02+0800
10小时前
查看轨道信息
半长轴: 6935.739km
偏心率: 0.0003235
轨道倾角: 70.001°
近地点辐角 245.358°
升交点赤经 213.959°
平近点角 288.022°
近地点: 555.358km
远地点: 559.846km
周期: 95.807分钟
每日圈数: 15.030164
详细信息
固有亮度:
5
最大亮度:
2.5
卫星平台:
Starlink v1.5
覆盖范围:
全球
运营商:
太空探索技术公司
运营商所在国:
美国
制造商(研发单位):
太空探索技术公司
制造商所在国:
美国
使用方式:
暂无
卫星简介
星链(Starlink)计划是由太空探索技术公司(SpaceX)提出的一个巨型低轨卫星互联网星座项目,计划在2019年至2024年间在太空搭建由约1.2万颗卫星组成的“星链”网络,其中1584颗将部署在地球上空550千米处的近地轨道,并从2020年开始工作。该卫星仍在工作。
2D轨道图
3D轨道图
轨道高度分析图
轨道倾角分析图
轨道综合分析图
查看轨道综合分析图
交会数据列表
事件ID 空间交会对象 最接近时刻(TCA) 交会距离 交会风险概率(CRP) 交会风险指数(CRI) 操作
CDM_260913-083205-678206-829121
STRIX-6 (68291)
2026-09-13T
08:32:54+0000
2.418 km
极远距离
1.371253E-6 低风险 0.38
与全量物体交会距离演化趋势
与全量物体交会风险概率演化趋势